Regional Weather Roundup
Issued by NWS Upton, NY

Current Version | Previous Version | Text Only | Print | Product List | Glossary On
Versions: 1 2 3 4 5 6 7 8 9 10 11 12 13 14 15 16 17 18 19 20 21 22 23 24 25 26 27 28 29 30 31 32 33 34 35 36 37 38 39 40 41 42 43 44 45 46 47 48 49 50
000 ASUS41 KOKX 252205 RWROKX REGIONAL WEATHER ROUNDUP NATIONAL WEATHER SERVICE NEW YORK NY 600 PM EDT MON JUL 25 2016 NOTE: "FAIR" INDICATES FEW OR NO CLOUDS BELOW 12,000 FEET WITH NO SIGNIFICANT WEATHER AND/OR OBSTRUCTIONS TO VISIBILITY. NYZ071-072-176-178-NJZ106-104-252300- NEW YORK CITY METRO AREA CITY SKY/WX TMP DP RH WIND PRES REMARKS Central Park RAIN 76 74 93 W3 29.91R FOG LaGuardia APRT TSTM 79 76 90 S8 29.86R FOG Kennedy INTL TSTM 75 73 94 W3 29.87R FOG Newark/Liberty TSTM 75 73 93 SW16G30 29.95R VSB 1/4 Bronx Bot Gard N/A 77 73 88 CALM 29.89R Wall St Helipt CLOUDY 77 73 88 E3 29.88R THUNDER VSB 1/2 Teterboro TSTM 81 76 84 S9 29.86R FOG $$ NYZ177-179-078>081-252300- LONG ISLAND NEW YORK CITY SKY/WX TMP DP RH WIND PRES REMARKS Farmingdale CLOUDY 80 76 87 S10 29.85S MacArthur/ISP CLOUDY 78 76 93 S7 29.83F Shirley CLOUDY 79 74 84 S9 29.85F Riverhead NOT AVBL Westhampton CLOUDY 77 72 84 SW6 29.85F Southhampton N/A 73 72 94 SW6 29.80F Bridgehampton N/A 77 73 88 W3 29.82F East Hampton FAIR 75 72 89 SW7 29.83F Montauk N/A 76 72 87 VRB5 29.84F $$ NYZ052-065-067-252300- HUDSON VALLEY CITY SKY/WX TMP DP RH WIND PRES REMARKS White Plains LGT RAIN 77 74 90 S8 29.85F FOG Newburgh LGT RAIN 79 75 89 NW5 29.88R Montgomery HVY RAIN 77 74 90 NW12G21 29.90R FOG Poughkeepsie TSTM 80 74 81 SW7 29.85R Albany LGT RAIN 80 73 79 S7 29.82F $$ NJZ001-105-106-008-010-013-015-019>022-104-252300- NEW JERSEY CITY SKY/WX TMP DP RH WIND PRES REMARKS Newark/Liberty TSTM 75 73 93 SW16G30 29.95R VSB 1/4 Teterboro TSTM 81 76 84 S9 29.86R FOG Caldwell RAIN 76 73 91 SW5 29.91R FOG Morristown TSTM 73 72 94 S7 29.91R Somerville TSTM 75 72 90 CALM 29.85F FOG Linden LGT RAIN 80 73 80 NE9 29.85R Sussex TSTM 72 71 97 N13G35 29.95R VSB 1/2 Abdover N/A 73 71 93 N13G28 29.94R Trenton TSTM 75 72 90 N28G36 29.84F VSB 3/4 Millville CLOUDY 94 76 55 SW7 29.85R HX 106 Atlantic City MOSUNNY 90 76 63 S8 29.85R HX 101 Wrightstown CLOUDY 89 77 67 VRB7 29.80S HX 101 Toms River CLOUDY 89 79 72 SW5 29.83S HX 104 Belmar TSTM 87 80 79 S6 29.83S HX 103 $$ PAZ047>061-062-071-252300- EASTERN PENNSYLVANIA CITY SKY/WX TMP DP RH WIND PRES REMARKS Philadelphia CLOUDY 96 73 47 SW16 29.83S HX 105 Allentown CLOUDY 75 70 84 NW9 29.90R THUNDER HAZE Scranton LGT RAIN 73 71 93 SE3 29.92F $$ CTZ002-004>006-009-010-012-RIZ004-006-007-MAZ004-011-015-252300- SOUTHERN NEW ENGLAND IN CT CITY SKY/WX TMP DP RH WIND PRES REMARKS Bradley INTL PTSUNNY 87 69 54 SW9 29.78S HX 91 Hartford MOSUNNY 88 71 57 SW7 29.79R HX 94 Danbury CLOUDY 79 73 82 SW3 29.85F Wtrbury/Oxford PTSUNNY 75 70 83 SW6 29.87R Bridgeport MOSUNNY 78 70 76 SW5 29.82F Meriden MOSUNNY 80 72 76 SW3 29.81S New Haven CLOUDY 77 69 76 SW6 29.83S Chester FAIR 79 72 78 S8 29.82F Groton LGT RAIN 76 72 87 SW9 29.80F Wilimantic NOT AVBL IN RI CITY SKY/WX TMP DP RH WIND PRES REMARKS Providence CLOUDY 80 70 71 S12 29.81F Block Island CLOUDY 75 71 87 SW12 29.84F Westerly CLOUDY 77 68 73 S9G20 29.82F IN MA CITY SKY/WX TMP DP RH WIND PRES REMARKS Boston CLOUDY 86 66 51 S17 29.77S Worchester MOSUNNY 84 65 52 S15 29.83F Westfield CLOUDY 88 67 49 W10 29.79R HX 91 Provincetown CLOUDY 77 68 73 S14 29.82F Nantucket PTSUNNY 73 70 90 S13 29.87F $$ ANZ330-335-338-340-345-350-353-355-252300- COASTAL MARINE OBSERVATIONS STATION/POSITION TIME SKY/WX TEMP WIND PRES VSBY WAVE AIR SEA DIR/SP/G HT/PER (UTC) (F) (DEG/KT/KT) (MB) (MI) (FT/S) NY HARB ENTRANCE 2050 77 74 190/ 12/ 14 1009.8 2/ 4 20S FIRE ISLAND 2050 76 75 170/ 6/ 6 1010.6 3/ 5 GREAT SOUTH BAY 2130 78 81 210/ 4/ 8 N/A 23 SSW MONTAUK P 2050 76 75 240/ 6/ 6 1011.8 2/ 6 15 E BARNEGAT LI 2122 75 N/A 2/ 4 HUDSON CANYON 2050 78 78 1011.0 2/ 4 KINGS POINT 2100 77 72 1010.6 EXECUTION ROCKS 2100 76 60/ 10/ 14 N/A CENTRAL LI SOUND 2100 77 76 240/ 12/ 16 N/A 1 EASTERN LI SOUND 2100 72 68 170/ 8/ 10 N/A ROBBINS REEF 2100 82 360/ 16/ 19 1009.8 $$ >>>>>>>>>>>>>>>>>>>>>>>>>>>> KEY <<<<<<<<<<<<<<<<<<<<<<<<<<< > < > SKY/WX - Sky Condition/Present Weather < > TMP - Temperature in Fahrenheit < > DP - Dew Point in Fahrenheit < > RH - Relative Humidity in Percent < > WIND - Direction (from) and Speed in MPH < > PRES - Mean Sea Level Pressure (inches of Hg) < > WCI - Wind Chill Index < > VSB - VISIBILITY IN MILES < > HX - HEAT INDEX < > TC - TEMPERATURE IN CELSIUS < > VRB - VARIABLE WIND DIRECTION < > < >>>>>>>>>>>>>>>>>>>>>>>>>>>> KEY <<<<<<<<<<<<<<<<<<<<<<<<<<<

USA.gov is the U.S. government's official web portal to all federal, state and local government web resources and services.